Regional Weather Roundup
Issued by NWS

Home | Current Version | Previous Version | Graphics & Text | Print | Product List | Glossary Off
Versions: 1 2 3 4 5 6 7 8 9 10 11 12 13 14 15 16 17 18 19 20 21 22 23 24 25 26 27 28 29 30 31 32 33 34 35 36 37 38 39 40 41 42 43 44 45 46 47 48 49 50

000
ASUS43 KMKX 011421
RWRWI

WISCONSIN REGIONAL WEATHER ROUNDUP
NATIONAL WEATHER SERVICE MILWAUKEE/SULLIVAN WI
900 AM CDT SAT AUG 01 2015

NOTE: "FAIR" INDICATES FEW OR NO CLOUDS BELOW 12,000 FEET WITH NO
SIGNIFICANT WEATHER AND/OR OBSTRUCTIONS TO VISIBILITY.

WIZ001-002-006>008-014>016-023>028-011500-
NORTHWEST WISCONSIN

CITY           SKY/WX    TMP DP  RH WIND       PRES   REMARKS
SUPERIOR ARPT  SUNNY     68  57  67 SW5       29.93S
ASHLAND        SUNNY     69  56  62 VRB6      29.93S
HAYWARD        SUNNY     69  51  52 NW5       29.96F
SIREN          SUNNY     68  55  64 W3        29.96S
CUMBERLAND     SUNNY     66  59  77 CALM      29.97F
RICE LAKE      SUNNY     66  58  74 CALM      29.98F
CHETEK         SUNNY     68  56  65 CALM      29.97S
LADYSMITH      SUNNY     70  52  52 NW8       29.98F
EAU CLAIRE     PTSUNNY   70  56  61 CALM      29.97R
MENOMONIE      MOSUNNY   72  58  62 CALM      29.98S
NEW RICHMOND   SUNNY     71  58  63 CALM      29.98R
OSCEOLA        SUNNY     69  59  71 CALM      30.00S
$$

WIZ003>005-009-010-017-018-011500-
NORTH CENTRAL WISCONSIN

CITY           SKY/WX    TMP DP  RH WIND       PRES   REMARKS
MANITOWISH WTR SUNNY     65  56  72 NW6       29.94S
ARBOR VITAE    SUNNY     64  55  70 NW6       29.95R
WOODRUFF       SUNNY     64  55  70 NW6       29.95R
RHINELANDER    SUNNY     65  54  67 W7        29.95S
EAGLE RIVER    SUNNY     65  51  60 NW10G16   29.94R
LAND O LAKES   SUNNY     67  52  59 NW8       29.94S
PHILLIPS       SUNNY     65  55  68 NW5       29.96S
TOMAHAWK       SUNNY     64  54  69 NW8       29.96S
MEDFORD        SUNNY     67  53  60 NW7       29.98R
MERRILL        NOT AVBL
$$

WIZ029-030-035-036-043>047-011500-
CENTRAL WISCONSIN

CITY           SKY/WX    TMP DP  RH WIND       PRES   REMARKS
WAUSAU         SUNNY     69  51  52 NW14      29.95R
MOSINEE        MOSUNNY   68  54  60 NW7       29.98R
MARSHFIELD     PTSUNNY   69  52  54 NW6       29.98S
STEVENS POINT  MOSUNNY   67  51  55 NW7       29.97S
WAUPACA        PTSUNNY   70  53  54 NW6       29.96S
WAUTOMA        PTSUNNY   71  54  55 NW7       29.98R
WISC RAPIDS    MOSUNNY   69  53  56 NW6       29.99R
CAMP DOUGLAS   PTSUNNY   72  63  73 W7        29.98R
$$

WIZ011>013-019>022-031-037>040-048>050-011500-
NORTHEAST WISCONSIN

CITY           SKY/WX    TMP DP  RH WIND       PRES   REMARKS
ANTIGO         SUNNY     64  54  69 NW10      29.95S
SHAWANO        SUNNY     69  54  58 W6        29.94S
OCONTO         SUNNY     69  55  60 W9        29.90S
STURGEON BAY   SUNNY     68  54  60 SW7       29.92F
GREEN BAY      SUNNY     70  56  61 NW9       29.93S
MANITOWOC      SUNNY     72  54  53 MISG      29.93S
APPLETON       MOSUNNY   70  52  52 W8        29.95S
CLINTONVILLE   SUNNY     70  50  49 NW9       29.94S
OSHKOSH        MOSUNNY   70  53  54 W9        29.95S
$$

WIZ032>034-041-042-053>061-011500-
SOUTHWEST WISCONSIN

CITY           SKY/WX    TMP DP  RH WIND       PRES   REMARKS
LA CROSSE      MOSUNNY   72  60  66 S3        29.97S
SPARTA         MOSUNNY   70  57  63 CALM      29.98F
VIROQUA        SUNNY     71  60  69 SW3       30.00S
BOSCOBEL       PTSUNNY   71  62  73 CALM      29.99S
PRAIRIE DU CHI CLOUDY    70  57  64 CALM      29.99S
PLATTEVILLE    MOSUNNY   71  63  77 CALM      30.00F
$$

WIZ056-057-062-063-064-067-068-011500-
SOUTH CENTRAL WISCONSIN

CITY           SKY/WX    TMP DP  RH WIND       PRES   REMARKS
REEDSBURG      CLOUDY    69  58  68 W3        29.98S
BARABOO/DELLS  CLOUDY    69  55  62 W3        29.99S
LONE ROCK      PTSUNNY   68  59  73 CALM      30.00S
MINERAL POINT  PTSUNNY   70  61  73 W3        30.01S
MADISON        PTSUNNY   70  58  65 CALM      29.99R
MIDDLETON      PTSUNNY   71  57  61 W10       30.00S
WATERTOWN      SUNNY     70  60  70 W8        29.98S
MONROE         PTSUNNY   68  59  73 W7        30.00S
JANESVILLE     PTSUNNY   72  57  60 NW7       29.99S
$$

WIZ051-052-058>065-066-070>072-011500-
SOUTHEAST WISCONSIN

CITY           SKY/WX    TMP DP  RH WIND       PRES   REMARKS
MILWAUKEE      MOSUNNY   74  54  49 NW8       29.97R
WAUKESHA       MOSUNNY   68  55  64 W10G17    29.99S
MILWAUKEE/TIMM SUNNY     72  54  53 W8        29.98S
RACINE         SUNNY     73  56  54 W9        29.99R
BURLINGTON     MOSUNNY   72  55  55 W6        29.98S
KENOSHA        SUNNY     73  59  61 W10       29.98S
FOND DU LAC    MOSUNNY   72  54  53 NW10      29.96S
SHEBOYGAN      SUNNY     72  56  57 NW8       29.94S
WEST BEND      SUNNY     70  54  56 W9        29.97R
JUNEAU         PTSUNNY   67  57  70 W6        29.99R
$$

LSZ147-162-011500-
LAKE SUPERIOR

STATION/POSITION TIME  TEMP    WIND        PRES    WAVE
                       AIR SEA DIR/SP/G            HT/PER
                 (UTC) (F)     (DEG/KT/KT) (MB)    (FT/S)
W MID LAKE BUOY  1350   57 54  250/ 12/ 14 1011.7S   1/ 3
DEVILS ISLAND    1400   60     250/ 15/ 18 1012.5F
PORT WING        1300   63     250/  6/  9 1013.5S
SAXON HARBOR     1300   64                 1012.9
$$

LMZ867-665-643>646-011500-
LAKE MICHIGAN

STATION/POSITION TIME  TEMP    WIND        PRES    WAVE
                       AIR SEA DIR/SP/G            HT/PER
                 (UTC) (F)     (DEG/KT/KT) (MB)    (FT/S)
CHAMBERS ISLAND  1300   66     250/  4/  9 1011.9S
S GREEN BAY BUOY 1300   62 66  280/ 10/ 12 1014.1
N MID LAKE BUOY  1350   65 68  280/ 10/ 12 1011.3R   1/ 3
NORTHPORT PIER   1300   67     290/  6/ 10 1011.9S
SISTER BAY       1344   71     330/  7/  8   N/A
ALGOMA LAKESHORE 1327          310/  7/ 11   N/A
KEWAUNEE LAKESHO 1400   69     300/  5/ 11 1012.3R
SHEBOYGAN LAKESH 1400   71     280/ 10/ 12 1013.9R
PORT WASHINGTON  1300   72     270/  8/ 13 1014.6S
ATWATER BUOY     1400   67 64  270/  6/  6 1015.9R
MILWAUKEE LAKESH 1400   72     290/  7/ 10   N/A
KENOSHA   LAKESH 1400   73     290/  8/ 12 1014.6S
$$

TC  - TEMPERATURE IN CELSIUS
VSB - VISIBILITY IN STATUTE MILES
WCI - WIND CHILL INDEX
HX  - HEAT INDEX




USA.gov is the U.S. government's official web portal to all federal, state and local government web resources and services.